Time,TemperatureF,DewpointF,PressureIn,WindDirection,WindDirectionDegrees,WindSpeedMPH,WindSpeedGustMPH,Humidity,HourlyPrecipIn,Conditions,Clouds,dailyrainin,SoftwareType,DateUTC
2013-09-28 00:01:00,67.6,52.8,29.96,NNW,339,0.0,0.0,59,0.00,CLR,,0.00,WeatherDisplay:10.37,2013-09-28 05:01:00,
2013-09-28 00:06:00,67.5,52.6,29.96,NNW,339,0.0,0.0,59,0.00,CLR,,0.00,WeatherDisplay:10.37,2013-09-28 05:06:00,
2013-09-28 00:11:00,67.5,52.6,29.96,NNW,339,0.0,0.0,59,0.00,CLR,,0.00,WeatherDisplay:10.37,2013-09-28 05:11:00,
2013-09-28 00:16:00,67.5,52.6,29.96,NNW,339,0.0,0.0,59,0.00,CLR,,0.00,WeatherDisplay:10.37,2013-09-28 05:16:00,
2013-09-28 00:21:00,67.5,52.6,29.96,NNW,339,0.0,0.0,59,0.00,CLR,,0.00,WeatherDisplay:10.37,2013-09-28 05:21:00,
2013-09-28 00:26:00,67.5,52.6,29.96,NNW,339,0.0,0.0,59,0.00,CLR,,0.00,WeatherDisplay:10.37,2013-09-28 05:26:00,
2013-09-28 00:31:00,67.5,52.6,29.96,NNW,339,0.0,0.0,59,0.00,CLR,,0.00,WeatherDisplay:10.37,2013-09-28 05:31:00,
2013-09-28 00:36:00,67.5,52.6,29.96,NNW,339,0.0,0.0,59,0.00,CLR,,0.00,WeatherDisplay:10.37,2013-09-28 05:36:00,
2013-09-28 00:41:00,67.5,52.6,29.96,NNW,339,0.0,0.0,59,0.00,CLR,,0.00,WeatherDisplay:10.37,2013-09-28 05:41:00,
2013-09-28 00:46:00,67.5,52.6,29.96,NNW,339,0.0,0.0,59,0.00,CLR,,0.00,WeatherDisplay:10.37,2013-09-28 05:46:00,
2013-09-28 00:51:00,67.5,52.6,29.96,NNW,339,0.0,0.0,59,0.00,CLR,,0.00,WeatherDisplay:10.37,2013-09-28 05:51:00,
2013-09-28 00:56:00,67.6,52.8,29.96,NNW,339,0.0,0.0,59,0.00,CLR,,0.00,WeatherDisplay:10.37,2013-09-28 05:56:00,
2013-09-28 01:01:00,67.6,52.8,29.96,NNW,339,0.0,0.0,59,0.00,CLR,,0.00,WeatherDisplay:10.37,2013-09-28 06:01:00,
2013-09-28 01:06:00,67.8,53.4,29.96,NNW,339,0.0,0.0,60,0.00,CLR,,0.00,WeatherDisplay:10.37,2013-09-28 06:06:00,
2013-09-28 01:11:00,68.0,53.1,29.96,NNW,339,0.0,0.0,59,0.00,CLR,,0.00,WeatherDisplay:10.37,2013-09-28 06:11:00,
2013-09-28 01:16:00,68.0,53.1,29.96,NNW,339,0.0,0.0,59,0.00,CLR,,0.00,WeatherDisplay:10.37,2013-09-28 06:16:00,
2013-09-28 01:21:00,68.0,53.1,29.96,NNW,339,0.0,0.0,59,0.00,CLR,,0.00,WeatherDisplay:10.37,2013-09-28 06:21:00,
2013-09-28 01:26:00,67.8,53.4,29.96,NNW,339,0.0,0.0,60,0.00,CLR,,0.00,WeatherDisplay:10.37,2013-09-28 06:26:00,
2013-09-28 01:31:00,67.8,53.4,29.96,NNW,339,0.0,0.0,60,0.00,CLR,,0.00,WeatherDisplay:10.37,2013-09-28 06:31:00,
2013-09-28 01:36:00,67.6,53.3,29.96,NNW,339,0.0,0.0,60,0.00,CLR,,0.00,WeatherDisplay:10.37,2013-09-28 06:36:00,
2013-09-28 01:41:00,67.6,53.3,29.96,NNW,339,0.0,0.0,60,0.00,CLR,,0.00,WeatherDisplay:10.37,2013-09-28 06:41:00,
2013-09-28 01:46:00,67.5,53.1,29.96,NNW,339,0.0,0.0,60,0.00,CLR,,0.00,WeatherDisplay:10.37,2013-09-28 06:46:00,
2013-09-28 01:51:00,67.5,53.1,29.96,NNW,339,0.0,0.0,60,0.00,CLR,,0.00,WeatherDisplay:10.37,2013-09-28 06:51:00,
2013-09-28 01:56:00,67.3,52.9,29.96,NNW,339,0.0,0.0,60,0.00,CLR,,0.00,WeatherDisplay:10.37,2013-09-28 06:56:00,
2013-09-28 02:01:00,67.3,52.9,29.96,NNW,339,0.0,0.0,60,0.00,CLR,,0.00,WeatherDisplay:10.37,2013-09-28 07:01:00,
2013-09-28 02:06:00,67.1,52.7,29.96,NNW,339,0.0,0.0,60,0.00,CLR,,0.00,WeatherDisplay:10.37,2013-09-28 07:06:00,
2013-09-28 02:11:00,67.1,52.7,29.96,NNW,339,0.0,0.0,60,0.00,CLR,,0.00,WeatherDisplay:10.37,2013-09-28 07:11:00,
2013-09-28 02:16:00,67.1,53.2,29.96,NNW,339,0.0,0.0,61,0.00,CLR,,0.00,WeatherDisplay:10.37,2013-09-28 07:16:00,
2013-09-28 02:21:00,67.1,53.2,29.96,NNW,339,0.0,0.0,61,0.00,CLR,,0.00,WeatherDisplay:10.37,2013-09-28 07:21:00,
2013-09-28 02:26:00,67.3,53.4,29.96,NNW,339,0.0,0.0,61,0.00,CLR,,0.00,WeatherDisplay:10.37,2013-09-28 07:26:00,
2013-09-28 02:31:00,67.3,53.4,29.96,NNW,339,0.0,0.0,61,0.00,CLR,,0.00,WeatherDisplay:10.37,2013-09-28 07:31:00,
2013-09-28 02:36:00,67.3,53.4,29.96,NNW,339,0.0,0.0,61,0.00,CLR,,0.00,WeatherDisplay:10.37,2013-09-28 07:36:00,
2013-09-28 02:41:00,67.3,53.4,29.96,NNW,339,0.0,0.0,61,0.00,CLR,,0.00,WeatherDisplay:10.37,2013-09-28 07:41:00,
2013-09-28 02:46:00,67.3,53.4,29.96,NNW,339,0.0,0.0,61,0.00,CLR,,0.00,WeatherDisplay:10.37,2013-09-28 07:46:00,
2013-09-28 02:51:00,67.3,53.4,29.96,NNW,339,0.0,0.0,61,0.00,CLR,,0.00,WeatherDisplay:10.37,2013-09-28 07:51:00,
2013-09-28 02:56:00,67.3,53.4,29.96,NNW,339,0.0,0.0,61,0.00,CLR,,0.00,WeatherDisplay:10.37,2013-09-28 07:56:00,
2013-09-28 03:01:00,67.1,53.2,29.96,NNW,339,0.0,0.0,61,0.00,CLR,,0.00,WeatherDisplay:10.37,2013-09-28 08:01:00,
2013-09-28 03:06:00,67.1,53.6,29.96,NNW,339,0.0,0.0,62,0.00,CLR,,0.00,WeatherDisplay:10.37,2013-09-28 08:06:00,
2013-09-28 03:11:00,67.1,53.6,29.96,NNW,339,0.0,0.0,62,0.00,CLR,,0.00,WeatherDisplay:10.37,2013-09-28 08:11:00,
2013-09-28 03:16:00,67.1,53.6,29.96,NNW,339,0.0,0.0,62,0.00,CLR,,0.00,WeatherDisplay:10.37,2013-09-28 08:16:00,
2013-09-28 03:21:00,67.1,53.6,29.96,NNW,339,0.0,0.0,62,0.00,CLR,,0.00,WeatherDisplay:10.37,2013-09-28 08:21:00,
2013-09-28 03:26:00,67.1,53.6,29.96,NNW,339,0.0,0.0,62,0.00,CLR,,0.00,WeatherDisplay:10.37,2013-09-28 08:26:00,
2013-09-28 03:31:00,66.9,53.5,29.96,NNW,339,0.0,0.0,62,0.00,CLR,,0.00,WeatherDisplay:10.37,2013-09-28 08:31:00,
2013-09-28 03:36:00,66.9,53.5,29.96,NNW,339,0.0,0.0,62,0.00,CLR,,0.00,WeatherDisplay:10.37,2013-09-28 08:36:00,
2013-09-28 03:41:00,66.9,53.5,29.96,NNW,339,0.0,0.0,62,0.00,CLR,,0.00,WeatherDisplay:10.37,2013-09-28 08:41:00,
2013-09-28 03:46:00,66.9,53.5,29.96,NNW,339,0.0,0.0,62,0.00,CLR,,0.00,WeatherDisplay:10.37,2013-09-28 08:46:00,
2013-09-28 03:51:00,66.9,53.9,29.96,NNW,339,0.0,0.0,63,0.00,CLR,,0.00,WeatherDisplay:10.37,2013-09-28 08:51:00,
2013-09-28 03:56:00,67.1,54.1,29.96,NNW,339,0.0,0.0,63,0.00,CLR,,0.00,WeatherDisplay:10.37,2013-09-28 08:56:00,
2013-09-28 04:02:00,67.3,54.3,29.96,NNW,339,0.0,0.0,63,0.00,CLR,,0.00,WeatherDisplay:10.37,2013-09-28 09:02:00,
2013-09-28 04:07:00,67.3,54.3,29.96,NNW,339,0.0,0.0,63,0.00,CLR,,0.00,WeatherDisplay:10.37,2013-09-28 09:07:00,
2013-09-28 04:12:00,67.5,54.4,29.96,NNW,339,0.0,0.0,63,0.00,CLR,,0.00,WeatherDisplay:10.37,2013-09-28 09:12:00,
2013-09-28 04:17:00,67.5,54.9,29.96,NNW,339,0.0,0.0,64,0.00,CLR,,0.00,WeatherDisplay:10.37,2013-09-28 09:17:00,
2013-09-28 04:22:00,67.5,54.9,29.96,NNW,339,0.0,0.0,64,0.00,CLR,,0.00,WeatherDisplay:10.37,2013-09-28 09:22:00,
2013-09-28 04:27:00,67.5,54.9,29.99,NNW,339,0.0,0.0,64,0.00,CLR,,0.00,WeatherDisplay:10.37,2013-09-28 09:27:00,
2013-09-28 04:32:00,67.3,54.7,29.99,NNW,339,0.0,0.0,64,0.00,CLR,,0.00,WeatherDisplay:10.37,2013-09-28 09:32:00,
2013-09-28 04:37:00,67.3,54.7,29.99,NNW,339,0.0,0.0,64,0.00,CLR,,0.00,WeatherDisplay:10.37,2013-09-28 09:37:00,
2013-09-28 04:42:00,67.1,54.5,29.99,NNW,339,0.0,0.0,64,0.00,CLR,,0.00,WeatherDisplay:10.37,2013-09-28 09:42:00,
2013-09-28 04:47:00,66.9,53.9,29.99,NNW,339,0.0,0.0,63,0.00,CLR,,0.00,WeatherDisplay:10.37,2013-09-28 09:47:00,
2013-09-28 04:52:00,66.9,54.3,29.99,NNW,339,0.0,0.0,64,0.00,CLR,,0.00,WeatherDisplay:10.37,2013-09-28 09:52:00,
2013-09-28 04:57:00,66.7,54.2,29.99,NNW,339,0.0,0.0,64,0.00,CLR,,0.00,WeatherDisplay:10.37,2013-09-28 09:57:00,
2013-09-28 05:02:00,66.7,54.2,29.99,NNW,339,0.0,0.0,64,0.00,CLR,,0.00,WeatherDisplay:10.37,2013-09-28 10:02:00,
2013-09-28 05:07:00,66.9,54.3,29.99,NNW,339,0.0,0.0,64,0.00,CLR,,0.00,WeatherDisplay:10.37,2013-09-28 10:07:00,
2013-09-28 05:12:00,66.9,54.3,29.99,NNW,339,0.0,0.0,64,0.00,CLR,,0.00,WeatherDisplay:10.37,2013-09-28 10:12:00,
2013-09-28 05:17:00,66.9,54.3,29.99,NNW,339,0.0,0.0,64,0.00,CLR,,0.00,WeatherDisplay:10.37,2013-09-28 10:17:00,
2013-09-28 05:22:00,66.9,54.3,29.99,NNW,339,0.0,0.0,64,0.00,CLR,,0.00,WeatherDisplay:10.37,2013-09-28 10:22:00,
2013-09-28 05:27:00,66.9,54.3,29.99,NNW,339,0.0,0.0,64,0.00,CLR,,0.00,WeatherDisplay:10.37,2013-09-28 10:27:00,
2013-09-28 05:32:00,66.9,54.8,29.99,NNW,339,0.0,0.0,65,0.00,CLR,,0.00,WeatherDisplay:10.37,2013-09-28 10:32:00,
2013-09-28 05:37:00,66.9,54.8,29.99,NNW,339,0.0,0.0,65,0.00,CLR,,0.00,WeatherDisplay:10.37,2013-09-28 10:37:00,
2013-09-28 05:42:00,66.7,54.6,29.99,NNW,339,0.0,0.0,65,0.00,CLR,,0.00,WeatherDisplay:10.37,2013-09-28 10:42:00,
2013-09-28 05:47:00,66.7,54.6,29.99,NNW,339,0.0,0.0,65,0.00,CLR,,0.00,WeatherDisplay:10.37,2013-09-28 10:47:00,
2013-09-28 05:52:00,66.7,54.6,29.99,NNW,339,0.0,0.0,65,0.00,CLR,,0.00,WeatherDisplay:10.37,2013-09-28 10:52:00,
2013-09-28 05:57:00,66.7,54.6,29.99,NNW,339,0.0,0.0,65,0.00,CLR,,0.00,WeatherDisplay:10.37,2013-09-28 10:57:00,
2013-09-28 06:02:00,66.7,54.6,29.99,NNW,339,0.0,0.0,65,0.00,CLR,,0.00,WeatherDisplay:10.37,2013-09-28 11:02:00,
2013-09-28 06:07:00,66.7,54.6,29.99,NNW,339,0.0,0.0,65,0.00,CLR,,0.00,WeatherDisplay:10.37,2013-09-28 11:07:00,
2013-09-28 06:12:00,66.7,54.6,29.99,NNW,339,0.0,0.0,65,0.00,CLR,,0.00,WeatherDisplay:10.37,2013-09-28 11:12:00,
2013-09-28 06:17:00,66.7,54.6,29.99,NNW,339,0.0,0.0,65,0.00,CLR,,0.00,WeatherDisplay:10.37,2013-09-28 11:17:00,
2013-09-28 06:22:00,66.7,54.6,29.99,NNW,339,0.0,0.0,65,0.00,CLR,,0.00,WeatherDisplay:10.37,2013-09-28 11:22:00,
2013-09-28 06:27:00,66.6,54.4,29.99,NNW,339,0.0,0.0,65,0.00,CLR,,0.00,WeatherDisplay:10.37,2013-09-28 11:27:00,
2013-09-28 06:32:00,66.6,54.4,29.99,NNW,339,0.0,0.0,65,0.00,CLR,,0.00,WeatherDisplay:10.37,2013-09-28 11:32:00,
2013-09-28 06:37:00,66.4,54.3,29.99,NNW,339,0.0,0.0,65,0.00,CLR,,0.00,WeatherDisplay:10.37,2013-09-28 11:37:00,
2013-09-28 06:42:00,66.4,54.7,29.99,NNW,339,0.0,0.0,66,0.00,CLR,,0.00,WeatherDisplay:10.37,2013-09-28 11:42:00,
2013-09-28 06:47:00,66.4,54.7,29.99,NNW,339,0.0,0.0,66,0.00,CLR,,0.00,WeatherDisplay:10.37,2013-09-28 11:47:00,
2013-09-28 06:52:00,66.4,54.7,29.99,NNW,339,0.0,0.0,66,0.00,CLR,,0.00,WeatherDisplay:10.37,2013-09-28 11:52:00,
2013-09-28 06:57:00,66.6,55.3,29.99,NNW,339,0.0,0.0,67,0.00,CLR,,0.00,WeatherDisplay:10.37,2013-09-28 11:57:00,
2013-09-28 07:02:00,66.9,55.6,29.99,WSW,248,0.0,0.0,67,0.00,CLR,,0.00,WeatherDisplay:10.37,2013-09-28 12:02:00,
2013-09-28 07:07:00,67.1,55.8,29.99,SW,227,0.0,0.0,67,0.00,CLR,,0.00,WeatherDisplay:10.37,2013-09-28 12:07:00,
2013-09-28 07:12:00,67.3,55.9,29.99,SW,227,0.0,0.0,67,0.00,CLR,,0.00,WeatherDisplay:10.37,2013-09-28 12:12:00,
2013-09-28 07:17:00,67.5,56.1,29.99,SW,227,0.0,0.0,67,0.00,CLR,,0.00,WeatherDisplay:10.37,2013-09-28 12:17:00,
2013-09-28 07:22:00,67.5,56.1,29.99,SW,227,0.0,0.0,67,0.00,CLR,,0.00,WeatherDisplay:10.37,2013-09-28 12:22:00,
2013-09-28 07:27:00,67.6,56.3,29.99,SW,227,0.0,0.0,67,0.00,CLR,,0.00,WeatherDisplay:10.37,2013-09-28 12:27:00,
2013-09-28 07:32:00,67.6,56.3,29.99,SW,227,0.0,0.0,67,0.00,CLR,,0.00,WeatherDisplay:10.37,2013-09-28 12:32:00,
2013-09-28 07:37:00,67.8,56.9,29.99,SW,227,0.0,0.0,68,0.00,CLR,,0.00,WeatherDisplay:10.37,2013-09-28 12:37:00,
2013-09-28 07:42:00,67.8,56.9,29.99,SW,227,0.0,0.0,68,0.00,CLR,,0.00,WeatherDisplay:10.37,2013-09-28 12:42:00,
2013-09-28 07:47:00,68.0,56.6,29.99,SW,227,0.0,0.0,67,0.00,CLR,,0.00,WeatherDisplay:10.37,2013-09-28 12:47:00,
2013-09-28 07:52:00,68.2,56.8,29.99,SW,227,0.0,0.0,67,0.00,CLR,,0.00,WeatherDisplay:10.37,2013-09-28 12:52:00,
2013-09-28 07:57:00,68.4,57.4,29.99,SW,227,0.0,0.0,68,0.00,CLR,,0.00,WeatherDisplay:10.37,2013-09-28 12:57:00,
2013-09-28 08:02:00,68.5,57.6,29.99,SW,227,0.0,0.0,68,0.00,CLR,,0.00,WeatherDisplay:10.37,2013-09-28 13:02:00,
2013-09-28 08:07:00,68.5,57.1,29.99,SW,227,0.0,0.0,67,0.00,CLR,,0.00,WeatherDisplay:10.37,2013-09-28 13:07:00,
2013-09-28 08:12:00,68.7,57.3,29.99,West,270,0.0,0.0,67,0.00,CLR,,0.00,WeatherDisplay:10.37,2013-09-28 13:12:00,
2013-09-28 08:17:00,68.9,57.5,29.99,WNW,299,0.0,0.0,67,0.00,CLR,,0.00,WeatherDisplay:10.37,2013-09-28 13:17:00,
2013-09-28 08:22:00,69.1,57.7,29.99,NE,52,0.0,0.0,67,0.00,CLR,,0.00,WeatherDisplay:10.37,2013-09-28 13:22:00,
2013-09-28 08:27:00,69.3,57.8,29.99,WNW,300,0.0,0.0,67,0.00,CLR,,0.00,WeatherDisplay:10.37,2013-09-28 13:27:00,
2013-09-28 08:32:00,69.4,58.0,29.99,SSW,209,0.0,0.0,67,0.00,CLR,,0.00,WeatherDisplay:10.37,2013-09-28 13:32:00,
2013-09-28 08:37:00,69.6,57.8,29.99,SW,236,0.0,2.3,66,0.00,CLR,,0.00,WeatherDisplay:10.37,2013-09-28 13:37:00,
2013-09-28 08:42:00,69.8,57.9,29.99,SSW,213,0.0,0.0,66,0.00,CLR,,0.00,WeatherDisplay:10.37,2013-09-28 13:42:00,
2013-09-28 08:47:00,70.0,57.7,29.99,SSW,199,0.0,3.5,65,0.00,CLR,,0.00,WeatherDisplay:10.37,2013-09-28 13:47:00,
2013-09-28 08:52:00,70.2,57.4,29.99,SSW,202,0.0,3.5,64,0.00,CLR,,0.00,WeatherDisplay:10.37,2013-09-28 13:52:00,
2013-09-28 08:57:00,70.3,57.6,29.99,SSW,210,2.7,3.5,64,0.00,CLR,,0.00,WeatherDisplay:10.37,2013-09-28 13:57:00,
2013-09-28 09:02:00,70.3,57.1,29.99,NW,305,0.0,2.3,63,0.00,CLR,,0.00,WeatherDisplay:10.37,2013-09-28 14:02:00,
2013-09-28 09:07:00,70.5,56.9,29.99,SW,220,3.1,4.6,62,0.00,CLR,,0.00,WeatherDisplay:10.37,2013-09-28 14:07:00,
2013-09-28 09:12:00,70.7,57.0,29.99,WSW,244,2.2,4.6,62,0.00,CLR,,0.00,WeatherDisplay:10.37,2013-09-28 14:12:00,
2013-09-28 09:17:00,70.7,56.6,29.99,WNW,299,0.0,0.0,61,0.00,CLR,,0.00,WeatherDisplay:10.37,2013-09-28 14:17:00,
2013-09-28 09:22:00,70.7,56.1,29.99,SSE,155,0.0,3.5,60,0.00,CLR,,0.00,WeatherDisplay:10.37,2013-09-28 14:22:00,
2013-09-28 09:27:00,70.9,56.3,29.99,SW,218,0.0,0.0,60,0.00,CLR,,0.00,WeatherDisplay:10.37,2013-09-28 14:27:00,
2013-09-28 09:32:00,70.9,55.8,29.99,WSW,247,0.0,2.3,59,0.00,CLR,,0.00,WeatherDisplay:10.37,2013-09-28 14:32:00,
2013-09-28 09:37:00,71.1,56.0,29.99,NE,39,0.0,3.5,59,0.00,CLR,,0.00,WeatherDisplay:10.37,2013-09-28 14:37:00,
2013-09-28 09:42:00,71.4,56.3,29.99,SSE,166,0.0,2.3,59,0.00,CLR,,0.00,WeatherDisplay:10.37,2013-09-28 14:42:00,
2013-09-28 09:47:00,71.6,56.0,29.99,WSW,245,0.0,2.3,58,0.00,CLR,,0.00,WeatherDisplay:10.37,2013-09-28 14:47:00,
2013-09-28 09:52:00,71.8,56.2,29.99,ESE,112,2.7,3.5,58,0.00,CLR,,0.00,WeatherDisplay:10.37,2013-09-28 14:52:00,
2013-09-28 09:57:00,72.0,55.9,29.99,South,169,0.0,3.5,57,0.00,CLR,,0.00,WeatherDisplay:10.37,2013-09-28 14:57:00,
2013-09-28 10:02:00,72.1,56.1,29.99,NW,320,2.2,3.5,57,0.00,CLR,,0.00,WeatherDisplay:10.37,2013-09-28 15:02:00,
2013-09-28 10:07:00,72.5,55.4,29.99,South,191,0.0,2.3,55,0.00,CLR,,0.00,WeatherDisplay:10.37,2013-09-28 15:07:00,
2013-09-28 10:12:00,72.7,54.6,29.99,SSE,163,0.0,0.0,53,0.00,CLR,,0.00,WeatherDisplay:10.37,2013-09-28 15:12:00,
2013-09-28 10:17:00,72.9,54.2,29.99,SE,143,2.2,3.5,52,0.00,CLR,,0.00,WeatherDisplay:10.37,2013-09-28 15:17:00,
2013-09-28 10:22:00,73.2,54.5,29.99,SSW,197,0.0,3.5,52,0.00,CLR,,0.00,WeatherDisplay:10.37,2013-09-28 15:22:00,
2013-09-28 10:27:00,73.6,54.3,29.99,SW,216,2.2,3.5,51,0.00,CLR,,0.00,WeatherDisplay:10.37,2013-09-28 15:27:00,
2013-09-28 10:32:00,73.9,53.6,29.99,SE,146,3.6,9.2,49,0.00,CLR,,0.00,WeatherDisplay:10.37,2013-09-28 15:32:00,
2013-09-28 10:37:00,74.3,53.9,29.99,NE,44,0.0,3.5,49,0.00,CLR,,0.00,WeatherDisplay:10.37,2013-09-28 15:37:00,
2013-09-28 10:42:00,74.7,53.7,29.99,SE,135,3.1,5.8,48,0.00,CLR,,0.00,WeatherDisplay:10.37,2013-09-28 15:42:00,
2013-09-28 10:47:00,75.0,54.0,29.99,NNW,328,2.7,3.5,48,0.00,CLR,,0.00,WeatherDisplay:10.37,2013-09-28 15:47:00,
2013-09-28 10:52:00,75.7,54.7,29.99,South,181,3.1,3.5,48,0.00,CLR,,0.00,WeatherDisplay:10.37,2013-09-28 15:52:00,
2013-09-28 10:57:00,76.6,54.9,29.99,SSE,149,0.0,0.0,47,0.00,CLR,,0.00,WeatherDisplay:10.37,2013-09-28 15:57:00,
2013-09-28 11:02:00,77.4,55.0,29.99,SSE,151,2.7,3.5,46,0.00,CLR,,0.00,WeatherDisplay:10.37,2013-09-28 16:02:00,
2013-09-28 11:07:00,78.3,55.8,29.99,South,175,3.1,3.5,46,0.00,CLR,,0.00,WeatherDisplay:10.37,2013-09-28 16:07:00,
2013-09-28 11:12:00,79.0,56.4,29.99,WSW,258,3.6,5.8,46,0.00,CLR,,0.00,WeatherDisplay:10.37,2013-09-28 16:12:00,
2013-09-28 11:17:00,79.9,57.3,29.99,West,262,2.7,3.5,46,0.00,CLR,,0.00,WeatherDisplay:10.37,2013-09-28 16:17:00,
2013-09-28 11:22:00,80.8,57.5,29.99,WSW,245,0.0,3.5,45,0.00,CLR,,0.00,WeatherDisplay:10.37,2013-09-28 16:22:00,
2013-09-28 11:27:00,81.3,56.7,29.99,SSE,167,3.1,3.5,43,0.00,CLR,,0.00,WeatherDisplay:10.37,2013-09-28 16:27:00,
2013-09-28 11:32:00,81.7,57.0,29.99,SSW,198,3.1,5.8,43,0.00,CLR,,0.00,WeatherDisplay:10.37,2013-09-28 16:32:00,
2013-09-28 11:37:00,81.9,57.2,29.99,NE,50,2.7,3.5,43,0.00,CLR,,0.00,WeatherDisplay:10.37,2013-09-28 16:37:00,
2013-09-28 11:42:00,82.2,57.5,29.99,NW,324,2.2,3.5,43,0.00,CLR,,0.00,WeatherDisplay:10.37,2013-09-28 16:42:00,
2013-09-28 11:47:00,82.8,57.3,29.99,South,174,3.6,4.6,42,0.00,CLR,,0.00,WeatherDisplay:10.37,2013-09-28 16:47:00,
2013-09-28 11:52:00,82.9,57.5,29.99,East,80,3.6,4.6,42,0.00,CLR,,0.00,WeatherDisplay:10.37,2013-09-28 16:52:00,
2013-09-28 11:57:00,83.5,58.0,29.99,West,264,0.0,0.0,42,0.00,CLR,,0.00,WeatherDisplay:10.37,2013-09-28 16:57:00,
2013-09-28 12:02:00,83.7,56.8,29.99,WSW,258,3.6,5.8,40,0.00,CLR,,0.00,WeatherDisplay:10.37,2013-09-28 17:02:00,
2013-09-28 12:07:00,83.5,56.6,29.99,WSW,258,3.1,3.5,40,0.00,CLR,,0.00,WeatherDisplay:10.37,2013-09-28 17:07:00,
2013-09-28 12:12:00,83.3,56.5,29.99,WSW,250,2.2,2.3,40,0.00,CLR,,0.00,WeatherDisplay:10.37,2013-09-28 17:12:00,
2013-09-28 12:17:00,83.1,56.3,29.99,North,0,0.0,0.0,40,0.00,CLR,,0.00,WeatherDisplay:10.37,2013-09-28 17:17:00,
2013-09-28 12:22:00,83.1,56.3,29.99,SSW,207,0.0,5.8,40,0.00,CLR,,0.00,WeatherDisplay:10.37,2013-09-28 17:22:00,
2013-09-28 12:27:00,83.3,56.5,29.99,North,1,2.2,5.8,40,0.00,CLR,,0.00,WeatherDisplay:10.37,2013-09-28 17:27:00,
2013-09-28 12:32:00,83.1,56.3,29.99,SSW,193,3.1,5.8,40,0.00,CLR,,0.00,WeatherDisplay:10.37,2013-09-28 17:32:00,
2013-09-28 12:37:00,82.9,56.1,29.99,South,172,3.1,5.8,40,0.00,CLR,,0.00,WeatherDisplay:10.37,2013-09-28 17:37:00,
2013-09-28 12:42:00,82.9,56.1,29.99,South,184,2.7,5.8,40,0.00,CLR,,0.00,WeatherDisplay:10.37,2013-09-28 17:42:00,
2013-09-28 12:47:00,82.9,56.1,29.99,SW,221,3.1,5.8,40,0.00,CLR,,0.00,WeatherDisplay:10.37,2013-09-28 17:47:00,
2013-09-28 12:52:00,83.1,56.3,29.99,SSE,160,3.1,3.5,40,0.00,CLR,,0.00,WeatherDisplay:10.37,2013-09-28 17:52:00,
2013-09-28 12:57:00,83.3,56.5,29.99,NW,315,4.5,8.1,40,0.00,CLR,,0.00,WeatherDisplay:10.37,2013-09-28 17:57:00,
2013-09-28 13:02:00,83.3,56.5,29.99,ENE,78,0.0,2.3,40,0.00,CLR,,0.00,WeatherDisplay:10.37,2013-09-28 18:02:00,
2013-09-28 13:07:00,83.3,56.5,29.99,SE,143,4.0,5.8,40,0.00,CLR,,0.00,WeatherDisplay:10.37,2013-09-28 18:07:00,
2013-09-28 13:12:00,83.5,56.6,29.99,North,7,2.7,3.5,40,0.00,CLR,,0.00,WeatherDisplay:10.37,2013-09-28 18:12:00,
2013-09-28 13:17:00,83.8,56.9,29.99,West,272,3.6,3.6,40,0.00,CLR,,0.00,WeatherDisplay:10.37,2013-09-28 18:17:00,
2013-09-28 13:22:00,84.0,57.1,29.99,West,280,2.7,3.5,40,0.00,CLR,,0.00,WeatherDisplay:10.37,2013-09-28 18:22:00,
2013-09-28 13:27:00,83.8,56.9,29.99,WNW,303,2.7,3.5,40,0.00,CLR,,0.00,WeatherDisplay:10.37,2013-09-28 18:27:00,
2013-09-28 13:32:00,83.7,56.8,29.99,SE,143,3.6,3.6,40,0.00,CLR,,0.00,WeatherDisplay:10.37,2013-09-28 18:32:00,
2013-09-28 13:37:00,83.3,56.5,29.99,SW,219,0.0,3.5,40,0.00,CLR,,0.00,WeatherDisplay:10.37,2013-09-28 18:37:00,
2013-09-28 13:42:00,82.8,56.0,29.99,NW,319,0.0,2.3,40,0.00,CLR,,0.00,WeatherDisplay:10.37,2013-09-28 18:42:00,
2013-09-28 13:47:00,82.6,55.8,29.99,NE,49,0.0,3.5,40,0.00,CLR,,0.00,WeatherDisplay:10.37,2013-09-28 18:47:00,
2013-09-28 13:52:00,82.2,55.5,29.99,SSE,159,3.1,3.5,40,0.00,CLR,,0.00,WeatherDisplay:10.37,2013-09-28 18:52:00,
2013-09-28 13:57:00,81.9,55.2,29.99,South,170,3.1,5.8,40,0.00,CLR,,0.00,WeatherDisplay:10.37,2013-09-28 18:57:00,
2013-09-28 14:02:00,81.9,55.2,29.99,SSE,159,2.7,3.5,40,0.00,CLR,,0.00,WeatherDisplay:10.37,2013-09-28 19:02:00,
2013-09-28 14:07:00,81.9,55.2,29.99,SSW,203,2.7,5.8,40,0.00,CLR,,0.00,WeatherDisplay:10.37,2013-09-28 19:07:00,
2013-09-28 14:12:00,81.9,55.2,29.99,North,357,0.0,3.5,40,0.00,CLR,,0.00,WeatherDisplay:10.37,2013-09-28 19:12:00,
2013-09-28 14:17:00,81.9,55.2,29.99,NW,319,2.2,3.5,40,0.00,CLR,,0.00,WeatherDisplay:10.37,2013-09-28 19:17:00,
2013-09-28 14:22:00,81.9,55.2,29.99,SSW,195,2.2,2.3,40,0.00,CLR,,0.00,WeatherDisplay:10.37,2013-09-28 19:22:00,
2013-09-28 14:27:00,81.9,55.2,29.99,SSE,152,2.7,4.0,40,0.00,CLR,,0.00,WeatherDisplay:10.37,2013-09-28 19:27:00,
2013-09-28 14:32:00,82.0,55.3,29.99,East,86,2.7,3.5,40,0.00,CLR,,0.00,WeatherDisplay:10.37,2013-09-28 19:32:00,
2013-09-28 14:37:00,82.6,55.8,29.99,South,170,2.7,3.5,40,0.00,CLR,,0.00,WeatherDisplay:10.37,2013-09-28 19:37:00,
2013-09-28 14:42:00,82.8,56.0,29.99,NNW,340,0.0,2.3,40,0.00,CLR,,0.00,WeatherDisplay:10.37,2013-09-28 19:42:00,
2013-09-28 14:47:00,82.8,56.0,29.99,West,279,4.0,5.8,40,0.00,CLR,,0.00,WeatherDisplay:10.37,2013-09-28 19:47:00,
2013-09-28 14:52:00,82.8,56.0,29.99,South,179,4.0,5.8,40,0.00,CLR,,0.00,WeatherDisplay:10.37,2013-09-28 19:52:00,
2013-09-28 14:57:00,82.6,55.8,29.99,WNW,282,2.7,3.5,40,0.00,CLR,,0.00,WeatherDisplay:10.37,2013-09-28 19:57:00,
2013-09-28 15:02:00,82.8,56.0,29.99,SSE,154,2.2,3.5,40,0.00,CLR,,0.00,WeatherDisplay:10.37,2013-09-28 20:02:00,
2013-09-28 15:07:00,82.9,56.1,29.99,WSW,254,3.6,3.6,40,0.00,CLR,,0.00,WeatherDisplay:10.37,2013-09-28 20:07:00,
2013-09-28 15:12:00,82.8,56.0,29.99,SE,135,2.7,3.5,40,0.00,CLR,,0.00,WeatherDisplay:10.37,2013-09-28 20:12:00,
2013-09-28 15:17:00,82.2,55.5,29.99,SW,218,2.7,3.5,40,0.00,CLR,,0.00,WeatherDisplay:10.37,2013-09-28 20:17:00,
2013-09-28 15:22:00,82.2,55.5,29.99,WNW,300,0.0,2.3,40,0.00,CLR,,0.00,WeatherDisplay:10.37,2013-09-28 20:22:00,
2013-09-28 15:27:00,82.4,55.7,29.99,SSE,159,2.7,3.5,40,0.00,CLR,,0.00,WeatherDisplay:10.37,2013-09-28 20:27:00,
2013-09-28 15:32:00,82.4,55.7,29.99,West,268,3.1,5.8,40,0.00,CLR,,0.00,WeatherDisplay:10.37,2013-09-28 20:32:00,
2013-09-28 15:37:00,82.6,55.8,29.99,East,80,2.2,3.5,40,0.00,CLR,,0.00,WeatherDisplay:10.37,2013-09-28 20:37:00,
2013-09-28 15:42:00,82.4,55.7,29.99,ESE,106,2.7,2.7,40,0.00,CLR,,0.00,WeatherDisplay:10.37,2013-09-28 20:42:00,
2013-09-28 15:47:00,82.2,55.5,29.99,SSE,158,3.1,5.8,40,0.00,CLR,,0.00,WeatherDisplay:10.37,2013-09-28 20:47:00,
2013-09-28 15:52:00,82.0,55.3,29.99,SSE,163,2.2,4.6,40,0.00,CLR,,0.00,WeatherDisplay:10.37,2013-09-28 20:52:00,
2013-09-28 15:57:00,82.0,55.3,29.99,SSE,168,2.2,3.5,40,0.00,CLR,,0.00,WeatherDisplay:10.37,2013-09-28 20:57:00,
2013-09-28 16:02:00,82.0,55.3,29.99,WNW,293,0.0,2.3,40,0.00,CLR,,0.00,WeatherDisplay:10.37,2013-09-28 21:02:00,
2013-09-28 16:07:00,82.0,55.3,29.99,SSW,201,0.0,2.3,40,0.00,CLR,,0.00,WeatherDisplay:10.37,2013-09-28 21:07:00,
2013-09-28 16:12:00,82.2,55.5,29.99,South,175,0.0,3.5,40,0.00,CLR,,0.00,WeatherDisplay:10.37,2013-09-28 21:12:00,
2013-09-28 16:17:00,82.4,55.7,29.99,ENE,75,2.2,3.5,40,0.00,CLR,,0.00,WeatherDisplay:10.37,2013-09-28 21:17:00,
2013-09-28 16:22:00,82.6,55.8,29.99,SE,144,2.7,3.5,40,0.00,CLR,,0.00,WeatherDisplay:10.37,2013-09-28 21:22:00,
2013-09-28 16:27:00,82.9,56.1,29.99,SSE,161,2.7,4.6,40,0.00,CLR,,0.00,WeatherDisplay:10.37,2013-09-28 21:27:00,
2013-09-28 16:32:00,82.9,56.1,29.99,SW,230,2.2,4.6,40,0.00,CLR,,0.00,WeatherDisplay:10.37,2013-09-28 21:32:00,
2013-09-28 16:37:00,82.9,56.1,29.99,WSW,237,3.6,3.6,40,0.00,CLR,,0.00,WeatherDisplay:10.37,2013-09-28 21:37:00,
2013-09-28 16:42:00,82.8,56.0,29.99,SSW,213,3.1,5.8,40,0.00,CLR,,0.00,WeatherDisplay:10.37,2013-09-28 21:42:00,
2013-09-28 16:47:00,82.4,55.7,29.99,SSE,157,2.7,4.6,40,0.00,CLR,,0.00,WeatherDisplay:10.37,2013-09-28 21:47:00,
2013-09-28 16:52:00,81.9,55.2,29.93,SSW,213,3.1,3.5,40,0.00,CLR,,0.00,WeatherDisplay:10.37,2013-09-28 21:52:00,
2013-09-28 16:57:00,81.7,55.0,29.93,West,275,3.1,3.6,40,0.00,CLR,,0.00,WeatherDisplay:10.37,2013-09-28 21:57:00,
2013-09-28 17:02:00,81.5,54.8,29.93,SSW,193,2.2,5.8,40,0.00,CLR,,0.00,WeatherDisplay:10.37,2013-09-28 22:02:00,
2013-09-28 17:07:00,81.3,54.7,29.93,SW,233,0.0,0.0,40,0.00,CLR,,0.00,WeatherDisplay:10.37,2013-09-28 22:07:00,
2013-09-28 17:12:00,81.1,54.5,29.93,SSW,212,0.0,0.0,40,0.00,CLR,,0.00,WeatherDisplay:10.37,2013-09-28 22:12:00,
2013-09-28 17:17:00,81.1,54.5,29.93,SSE,163,0.0,3.5,40,0.00,CLR,,0.00,WeatherDisplay:10.37,2013-09-28 22:17:00,
2013-09-28 17:22:00,81.1,54.5,29.93,South,184,0.0,3.5,40,0.00,CLR,,0.00,WeatherDisplay:10.37,2013-09-28 22:22:00,
2013-09-28 17:27:00,81.0,54.4,29.93,WSW,241,0.0,2.3,40,0.00,CLR,,0.00,WeatherDisplay:10.37,2013-09-28 22:27:00,
2013-09-28 17:32:00,81.0,54.4,29.93,South,169,0.0,0.0,40,0.00,CLR,,0.00,WeatherDisplay:10.37,2013-09-28 22:32:00,
2013-09-28 17:37:00,80.6,54.0,29.93,SSW,195,0.0,0.0,40,0.00,CLR,,0.00,WeatherDisplay:10.37,2013-09-28 22:37:00,
2013-09-28 17:42:00,80.4,54.6,29.93,SSW,193,0.0,0.0,41,0.00,CLR,,0.00,WeatherDisplay:10.37,2013-09-28 22:42:00,
2013-09-28 17:47:00,80.2,54.4,29.93,SSW,200,0.0,2.3,41,0.00,CLR,,0.00,WeatherDisplay:10.37,2013-09-28 22:47:00,
2013-09-28 17:52:00,80.1,54.2,29.93,SSW,200,0.0,0.0,41,0.00,CLR,,0.00,WeatherDisplay:10.37,2013-09-28 22:52:00,
2013-09-28 17:57:00,79.9,54.1,29.93,SE,137,0.0,0.0,41,0.00,CLR,,0.00,WeatherDisplay:10.37,2013-09-28 22:57:00,
2013-09-28 18:02:00,79.7,53.9,29.93,SE,137,0.0,0.0,41,0.00,CLR,,0.00,WeatherDisplay:10.37,2013-09-28 23:02:00,
2013-09-28 18:07:00,79.5,53.8,29.93,SE,137,0.0,0.0,41,0.00,CLR,,0.00,WeatherDisplay:10.37,2013-09-28 23:07:00,
2013-09-28 18:12:00,79.3,53.6,29.93,South,176,0.0,0.0,41,0.00,CLR,,0.00,WeatherDisplay:10.37,2013-09-28 23:12:00,
2013-09-28 18:17:00,79.2,53.4,29.93,South,176,0.0,0.0,41,0.00,CLR,,0.00,WeatherDisplay:10.37,2013-09-28 23:17:00,
2013-09-28 18:22:00,79.0,53.3,29.93,South,184,0.0,0.0,41,0.00,CLR,,0.00,WeatherDisplay:10.37,2013-09-28 23:22:00,
2013-09-28 18:27:00,78.8,54.4,29.93,South,183,0.0,0.0,43,0.00,CLR,,0.00,WeatherDisplay:10.37,2013-09-28 23:27:00,
2013-09-28 18:32:00,78.6,54.9,29.93,South,184,0.0,0.0,44,0.00,CLR,,0.00,WeatherDisplay:10.37,2013-09-28 23:32:00,
2013-09-28 18:37:00,78.4,54.7,29.93,South,172,0.0,0.0,44,0.00,CLR,,0.00,WeatherDisplay:10.37,2013-09-28 23:37:00,
2013-09-28 18:42:00,78.1,54.4,29.93,South,172,0.0,0.0,44,0.00,CLR,,0.00,WeatherDisplay:10.37,2013-09-28 23:42:00,
2013-09-28 18:47:00,77.7,54.1,29.93,South,172,0.0,0.0,44,0.00,CLR,,0.00,WeatherDisplay:10.37,2013-09-28 23:47:00,
2013-09-28 18:52:00,77.4,53.7,29.93,South,172,0.0,0.0,44,0.00,CLR,,0.00,WeatherDisplay:10.37,2013-09-28 23:52:00,
2013-09-28 18:57:00,77.0,53.4,29.93,South,172,0.0,0.0,44,0.00,CLR,,0.00,WeatherDisplay:10.37,2013-09-28 23:57:00,
2013-09-28 19:02:00,76.6,53.1,29.93,South,172,0.0,0.0,44,0.00,CLR,,0.00,WeatherDisplay:10.37,2013-09-29 00:02:00,
2013-09-28 19:07:00,76.3,54.0,29.93,South,172,0.0,0.0,46,0.00,CLR,,0.00,WeatherDisplay:10.37,2013-09-29 00:07:00,
2013-09-28 19:12:00,76.1,53.8,29.93,South,172,0.0,0.0,46,0.00,CLR,,0.00,WeatherDisplay:10.37,2013-09-29 00:12:00,
2013-09-28 19:21:00,75.7,53.5,29.93,South,172,0.0,0.0,46,0.00,CLR,,0.00,WeatherDisplay:10.37,2013-09-29 00:21:00,
2013-09-28 19:26:00,75.6,53.9,29.93,South,172,0.0,0.0,47,0.00,CLR,,0.00,WeatherDisplay:10.37,2013-09-29 00:26:00,
2013-09-28 19:31:00,75.4,53.7,29.93,South,172,0.0,0.0,47,0.00,CLR,,0.00,WeatherDisplay:10.37,2013-09-29 00:31:00,
2013-09-28 19:36:00,75.4,53.7,29.93,South,173,0.0,0.0,47,0.00,CLR,,0.00,WeatherDisplay:10.37,2013-09-29 00:36:00,
2013-09-28 19:41:00,75.4,53.7,29.93,South,172,0.0,0.0,47,0.00,CLR,,0.00,WeatherDisplay:10.37,2013-09-29 00:41:00,
2013-09-28 19:46:00,75.4,53.7,29.93,South,172,0.0,0.0,47,0.00,CLR,,0.00,WeatherDisplay:10.37,2013-09-29 00:46:00,
2013-09-28 19:51:00,75.2,53.6,29.93,South,172,0.0,0.0,47,0.00,CLR,,0.00,WeatherDisplay:10.37,2013-09-29 00:51:00,
2013-09-28 19:56:00,75.2,53.6,29.93,South,172,0.0,0.0,47,0.00,CLR,,0.00,WeatherDisplay:10.37,2013-09-29 00:56:00,
2013-09-28 20:02:00,75.2,53.6,29.93,South,172,0.0,0.0,47,0.00,CLR,,0.00,WeatherDisplay:10.37,2013-09-29 01:02:00,
2013-09-28 20:07:00,75.2,53.6,29.93,South,172,0.0,0.0,47,0.00,CLR,,0.00,WeatherDisplay:10.37,2013-09-29 01:07:00,
2013-09-28 20:12:00,75.2,53.6,29.93,SW,234,0.0,0.0,47,0.00,CLR,,0.00,WeatherDisplay:10.37,2013-09-29 01:12:00,
2013-09-28 20:17:00,75.2,53.6,29.93,SW,236,0.0,0.0,47,0.00,CLR,,0.00,WeatherDisplay:10.37,2013-09-29 01:17:00,
2013-09-28 20:22:00,75.2,53.6,29.93,SW,232,0.0,0.0,47,0.00,CLR,,0.00,WeatherDisplay:10.37,2013-09-29 01:22:00,
2013-09-28 20:27:00,75.2,53.6,29.93,SW,232,0.0,0.0,47,0.00,CLR,,0.00,WeatherDisplay:10.37,2013-09-29 01:27:00,
2013-09-28 20:32:00,75.2,53.6,29.93,WNW,295,0.0,0.0,47,0.00,CLR,,0.00,WeatherDisplay:10.37,2013-09-29 01:32:00,
2013-09-28 20:37:00,75.0,53.4,29.93,WNW,284,0.0,0.0,47,0.00,CLR,,0.00,WeatherDisplay:10.37,2013-09-29 01:37:00,
2013-09-28 20:42:00,75.0,53.4,29.93,SSE,158,0.0,0.0,47,0.00,CLR,,0.00,WeatherDisplay:10.37,2013-09-29 01:42:00,
2013-09-28 20:47:00,75.0,53.4,29.93,South,191,0.0,0.0,47,0.00,CLR,,0.00,WeatherDisplay:10.37,2013-09-29 01:47:00,
2013-09-28 20:52:00,75.2,53.6,29.93,SSE,150,0.0,3.5,47,0.00,CLR,,0.00,WeatherDisplay:10.37,2013-09-29 01:52:00,
2013-09-28 20:57:00,75.2,53.6,29.93,SSW,205,0.0,2.3,47,0.00,CLR,,0.00,WeatherDisplay:10.37,2013-09-29 01:57:00,
2013-09-28 21:02:00,75.2,53.0,29.93,SSW,213,0.0,0.0,46,0.00,CLR,,0.00,WeatherDisplay:10.37,2013-09-29 02:02:00,
2013-09-28 21:07:00,75.2,53.0,29.93,ENE,71,0.0,2.3,46,0.00,CLR,,0.00,WeatherDisplay:10.37,2013-09-29 02:07:00,
2013-09-28 21:12:00,75.2,53.0,29.93,South,177,0.0,4.0,46,0.00,CLR,,0.00,WeatherDisplay:10.37,2013-09-29 02:12:00,
2013-09-28 21:17:00,75.2,53.0,29.93,WSW,254,0.0,0.0,46,0.00,CLR,,0.00,WeatherDisplay:10.37,2013-09-29 02:17:00,
2013-09-28 21:22:00,75.2,53.0,29.93,South,184,0.0,0.0,46,0.00,CLR,,0.00,WeatherDisplay:10.37,2013-09-29 02:22:00,
2013-09-28 21:27:00,75.2,53.0,29.93,SW,222,0.0,2.3,46,0.00,CLR,,0.00,WeatherDisplay:10.37,2013-09-29 02:27:00,
2013-09-28 21:32:00,75.0,53.4,29.93,East,96,0.0,3.5,47,0.00,CLR,,0.00,WeatherDisplay:10.37,2013-09-29 02:32:00,
2013-09-28 21:37:00,75.0,53.4,29.93,NNE,15,0.0,0.0,47,0.00,CLR,,0.00,WeatherDisplay:10.37,2013-09-29 02:37:00,
2013-09-28 21:42:00,75.0,53.4,29.93,SW,224,0.0,2.3,47,0.00,CLR,,0.00,WeatherDisplay:10.37,2013-09-29 02:42:00,
2013-09-28 21:47:00,74.8,53.3,29.93,SSW,210,0.0,0.0,47,0.00,CLR,,0.00,WeatherDisplay:10.37,2013-09-29 02:47:00,
2013-09-28 21:52:00,74.8,53.3,29.93,SSW,201,0.0,0.0,47,0.00,CLR,,0.00,WeatherDisplay:10.37,2013-09-29 02:52:00,
2013-09-28 21:57:00,74.7,53.1,29.93,SSE,150,0.0,0.0,47,0.00,CLR,,0.00,WeatherDisplay:10.37,2013-09-29 02:57:00,
2013-09-28 22:02:00,74.7,51.3,29.93,NNE,25,0.0,2.3,44,0.00,CLR,,0.00,WeatherDisplay:10.37,2013-09-29 03:02:00,
2013-09-28 22:07:00,74.5,51.1,29.93,NNE,29,0.0,0.0,44,0.00,CLR,,0.00,WeatherDisplay:10.37,2013-09-29 03:07:00,
2013-09-28 22:12:00,74.5,51.1,29.93,SSE,153,0.0,2.3,44,0.00,CLR,,0.00,WeatherDisplay:10.37,2013-09-29 03:12:00,
2013-09-28 22:17:00,74.5,51.1,29.93,NNW,331,0.0,3.5,44,0.00,CLR,,0.00,WeatherDisplay:10.37,2013-09-29 03:17:00,
2013-09-28 22:22:00,74.5,51.1,29.93,NE,44,2.7,3.5,44,0.00,CLR,,0.00,WeatherDisplay:10.37,2013-09-29 03:22:00,
2013-09-28 22:27:00,74.3,51.0,29.93,SSW,200,0.0,2.3,44,0.00,CLR,,0.00,WeatherDisplay:10.37,2013-09-29 03:27:00,
2013-09-28 22:32:00,74.3,51.0,29.93,NW,306,0.0,3.5,44,0.00,CLR,,0.00,WeatherDisplay:10.37,2013-09-29 03:32:00,
2013-09-28 22:37:00,74.3,51.0,29.93,SSE,151,0.0,0.0,44,0.00,CLR,,0.00,WeatherDisplay:10.37,2013-09-29 03:37:00,
2013-09-28 22:42:00,74.1,50.8,29.93,NW,322,0.0,0.0,44,0.00,CLR,,0.00,WeatherDisplay:10.37,2013-09-29 03:42:00,
2013-09-28 22:47:00,74.1,50.8,29.93,WSW,246,0.0,0.0,44,0.00,CLR,,0.00,WeatherDisplay:10.37,2013-09-29 03:47:00,
2013-09-28 22:52:00,73.9,50.6,29.93,NW,316,0.0,2.3,44,0.00,CLR,,0.00,WeatherDisplay:10.37,2013-09-29 03:52:00,
2013-09-28 22:57:00,73.9,50.6,29.93,WSW,245,0.0,0.0,44,0.00,CLR,,0.00,WeatherDisplay:10.37,2013-09-29 03:57:00,
2013-09-28 23:01:00,73.9,50.6,29.93,SW,217,0.0,3.5,44,0.00,CLR,,0.00,WeatherDisplay:10.37,2013-09-29 04:01:00,
2013-09-28 23:02:00,73.9,50.6,29.93,SW,217,0.0,3.5,44,0.00,CLR,,0.00,WeatherDisplay:10.37,2013-09-29 04:02:00,
2013-09-28 23:03:00,73.9,50.6,29.93,SW,217,0.0,2.3,44,0.00,CLR,,0.00,WeatherDisplay:10.37,2013-09-29 04:03:00,
2013-09-28 23:08:00,73.8,50.5,29.93,ESE,113,0.0,0.0,44,0.00,CLR,,0.00,WeatherDisplay:10.37,2013-09-29 04:08:00,
2013-09-28 23:13:00,73.6,50.3,29.93,WNW,285,0.0,0.0,44,0.00,CLR,,0.00,WeatherDisplay:10.37,2013-09-29 04:13:00,
2013-09-28 23:18:00,73.6,50.3,29.93,NNE,19,0.0,0.0,44,0.00,CLR,,0.00,WeatherDisplay:10.37,2013-09-29 04:18:00,
2013-09-28 23:23:00,73.4,50.2,29.93,SSE,147,3.1,3.5,44,0.00,CLR,,0.00,WeatherDisplay:10.37,2013-09-29 04:23:00,
2013-09-28 23:28:00,73.4,50.2,29.93,SSE,152,0.0,0.0,44,0.00,CLR,,0.00,WeatherDisplay:10.37,2013-09-29 04:28:00,
2013-09-28 23:33:00,73.4,51.9,29.93,WSW,240,0.0,0.0,47,0.00,CLR,,0.00,WeatherDisplay:10.37,2013-09-29 04:33:00,
2013-09-28 23:38:00,73.2,51.8,29.93,SW,227,0.0,0.0,47,0.00,CLR,,0.00,WeatherDisplay:10.37,2013-09-29 04:38:00,
2013-09-28 23:44:00,73.2,51.8,29.93,SW,226,0.0,2.3,47,0.00,CLR,,0.00,WeatherDisplay:10.37,2013-09-29 04:44:00,
2013-09-28 23:49:00,73.0,51.6,29.93,ESE,116,0.0,0.0,47,0.00,CLR,,0.00,WeatherDisplay:10.37,2013-09-29 04:49:00,
2013-09-28 23:54:00,72.9,51.4,29.93,SE,143,0.0,0.0,47,0.00,CLR,,0.00,WeatherDisplay:10.37,2013-09-29 04:54:00,
2013-09-28 23:59:00,72.7,51.3,29.99,SE,143,0.0,0.0,47,0.00,CLR,,0.00,WeatherDisplay:10.37,2013-09-29 04:59:00,